[Date Prev][Date Next][Thread Prev][Thread Next] - [Date Index][Thread Index][Author Index]

2 Line ISS Keps 5-4



ISS
1 25544U 98067A   05124.75034722  .00012776  00000-0  10105-3 0  3955
2 25544 051.6445 123.3263 0008009 081.0202 269.5706 15.71740603368845
----
Via the sarex mailing list at AMSAT.ORG courtesy of AMSAT-NA.
To unsubscribe, send "unsubscribe sarex" to Majordomo@amsat.org



AMSAT Top AMSAT Home